MDT,Max TemperatureF,Mean TemperatureF,Min TemperatureF,Max Dew PointF,MeanDew PointF,Min DewpointF,Max Humidity, Mean Humidity, Min Humidity, Max Sea Level PressureIn, Mean Sea Level PressureIn, Min Sea Level PressureIn, Max VisibilityMiles, Mean VisibilityMiles, Min VisibilityMiles, Max Wind SpeedMPH, Mean Wind SpeedMPH, Max Gust SpeedMPH,PrecipitationIn, CloudCover, Events, WindDirDegrees
2013-3-1,48,39,29,29,27,24,78,62,45,30.39,30.36,30.30,10,10,10,10,3,16,0.00,5,,302
2013-3-2,50,36,22,28,25,19,92,64,36,30.38,30.19,29.92,10,10,10,10,3,13,0.00,2,,90
2013-3-3,41,33,24,32,22,5,96,64,32,30.06,29.82,29.71,10,8,1,32,12,44,0.02,7,Rain-Snow,316
2013-3-4,26,20,14,16,9,5,73,60,46,30.38,30.22,29.96,10,8,1,13,7,17,T,5,Snow,28
2013-3-5,37,21,5,18,10,1,87,61,35,30.33,30.20,30.01,10,10,10,8,1,9,0.00,2,,125
2013-3-6,41,31,20,31,24,15,92,70,48,29.99,29.78,29.65,10,7,0,25,4,31,0.03,6,Fog-Snow,190
2013-3-7,38,29,20,20,16,12,77,56,35,30.09,30.01,29.84,10,10,10,13,4,16,0.00,3,,127
2013-3-8,41,26,11,17,13,8,92,60,28,30.11,30.03,29.93,10,10,10,10,3,15,0.00,0,,159
2013-3-9,39,25,11,19,14,8,84,62,40,30.38,30.25,30.08,10,10,10,16,5,21,0.00,2,,314
2013-3-10,46,29,12,26,16,10,92,60,27,30.46,30.29,30.14,10,10,10,13,5,15,0.00,3,,329
2013-3-11,40,32,23,26,15,6,75,50,25,30.25,30.14,30.09,10,10,10,30,13,40,0.00,1,,310
2013-3-12,48,34,19,26,21,11,77,58,39,30.29,30.19,30.09,10,10,6,20,6,26,0.00,6,,235
2013-3-13,56,45,34,28,24,15,70,45,20,30.20,30.14,30.10,10,10,10,18,7,26,0.00,3,,258
2013-3-14,58,43,27,30,25,-9,92,50,7,30.23,30.13,30.01,10,10,9,14,3,18,0.00,1,,167
2013-3-15,52,42,32,27,24,17,75,51,26,30.11,30.01,29.95,10,10,10,22,7,25,0.00,2,,321
2013-3-16,46,37,27,27,22,14,85,56,26,30.03,29.88,29.60,10,10,10,15,5,23,0.00,4,,213
2013-3-17,37,30,23,30,19,7,92,66,39,30.01,29.69,29.55,10,6,0,26,12,35,0.01,7,Fog-Snow,301
2013-3-18,33,27,21,21,10,2,81,55,28,30.07,29.98,29.93,10,8,0,23,11,33,0.04,6,Fog-Snow,293
2013-3-19,41,22,2,20,12,2,92,56,20,30.35,30.16,29.95,10,7,0,13,3,20,T,2,Fog-Snow,326
2013-3-20,51,41,30,30,23,8,100,66,32,30.04,29.72,29.53,10,6,0,31,8,45,0.13,6,Fog-Snow,250
2013-3-21,30,23,16,21,12,4,77,54,31,30.02,29.86,29.66,10,10,7,21,9,30,T,5,Snow,286
2013-3-22,28,17,6,16,10,3,88,63,38,30.21,30.04,29.89,10,8,0,21,5,25,T,5,Fog-Snow,329
2013-3-23,26,16,6,14,8,3,88,64,40,30.38,30.21,30.07,10,5,0,17,5,23,T,7,Snow,320
2013-3-24,32,19,6,11,5,0,88,58,28,30.42,30.31,30.13,10,9,3,9,4,13,T,2,Snow,155
2013-3-25,42,25,7,18,7,3,80,52,23,30.30,30.19,30.04,10,10,10,10,3,13,0.00,1,,155
2013-3-26,49,38,27,23,19,16,75,51,26,30.01,29.97,29.90,10,10,9,10,3,14,0.00,4,,165
2013-3-27,52,37,22,30,23,18,92,61,29,30.07,30.02,29.96,10,10,10,20,2,28,T,4,Rain,197
2013-3-28,54,40,26,32,27,19,92,61,29,30.12,30.06,30.02,10,10,10,14,3,18,T,5,,307
2013-3-29,49,40,30,36,31,28,92,75,58,30.22,30.16,30.09,10,10,5,18,3,21,0.03,7,Rain,351
2013-3-30,53,40,27,32,24,9,92,55,17,30.29,30.23,30.16,10,10,10,15,4,20,0.00,3,,301
2013-3-31,59,41,23,27,23,6,88,52,15,30.17,30.09,30.02,10,10,10,16,3,20,0.00,0,,360